Time,TemperatureF,DewpointF,PressureIn,WindDirection,WindDirectionDegrees,WindSpeedMPH,WindSpeedGustMPH,Humidity,HourlyPrecipIn,Conditions,Clouds,dailyrainin,SolarRadiationWatts/m^2,SoftwareType,DateUTC
2013-06-08 00:22:00,58.0,51.0,-100.00,NW,314,5.0,11.0,77,0.00,,,0.05,0.000000,,2013-06-08 06:22:00,
2013-06-08 00:32:00,58.0,51.0,-100.00,NW,314,5.0,11.0,77,0.00,,,0.05,0.000000,,2013-06-08 06:32:00,
2013-06-08 00:42:00,58.0,51.0,-100.00,NW,314,5.0,11.0,77,0.00,,,0.05,0.000000,,2013-06-08 06:42:00,
2013-06-08 00:52:00,58.0,51.0,-100.00,NW,314,5.0,11.0,77,0.00,,,0.05,0.000000,,2013-06-08 06:52:00,
2013-06-08 01:22:00,59.0,50.0,-100.00,West,275,5.0,9.0,71,0.00,,,0.05,0.000000,,2013-06-08 07:22:00,
2013-06-08 01:32:00,59.0,50.0,-100.00,West,275,5.0,9.0,71,0.00,,,0.05,0.000000,,2013-06-08 07:32:00,
2013-06-08 01:42:00,59.0,50.0,-100.00,West,275,5.0,9.0,71,0.00,,,0.05,0.000000,,2013-06-08 07:42:00,
2013-06-08 01:52:00,59.0,50.0,-100.00,West,275,5.0,9.0,71,0.00,,,0.05,0.000000,,2013-06-08 07:52:00,
2013-06-08 02:22:00,57.0,50.0,-100.00,West,274,4.0,10.0,76,0.00,,,0.05,0.000000,,2013-06-08 08:22:00,
2013-06-08 02:32:00,57.0,50.0,-100.00,West,274,4.0,10.0,76,0.00,,,0.05,0.000000,,2013-06-08 08:32:00,
2013-06-08 02:42:00,57.0,50.0,-100.00,West,274,4.0,10.0,76,0.00,,,0.05,0.000000,,2013-06-08 08:42:00,
2013-06-08 02:52:00,57.0,50.0,-100.00,West,274,4.0,10.0,76,0.00,,,0.05,0.000000,,2013-06-08 08:52:00,
2013-06-08 03:12:00,55.0,52.0,-100.00,West,276,7.0,13.0,90,0.01,,,0.06,0.000000,,2013-06-08 09:12:00,
2013-06-08 03:22:00,55.0,52.0,-100.00,West,276,7.0,13.0,90,0.01,,,0.06,0.000000,,2013-06-08 09:22:00,
2013-06-08 03:33:00,55.0,52.0,-100.00,West,276,7.0,13.0,90,0.01,,,0.06,0.000000,,2013-06-08 09:33:00,
2013-06-08 03:43:00,55.0,52.0,-100.00,West,276,7.0,13.0,90,0.01,,,0.06,0.000000,,2013-06-08 09:43:00,
2013-06-08 03:53:00,55.0,52.0,-100.00,West,276,7.0,13.0,90,0.01,,,0.06,0.000000,,2013-06-08 09:53:00,
2013-06-08 04:22:00,54.0,53.0,-100.00,NW,323,7.0,17.0,95,0.16,,,0.22,0.000000,,2013-06-08 10:22:00,
2013-06-08 04:33:00,54.0,53.0,-100.00,NW,323,7.0,17.0,95,0.16,,,0.22,0.000000,,2013-06-08 10:33:00,
2013-06-08 04:43:00,54.0,53.0,-100.00,NW,323,7.0,17.0,95,0.16,,,0.22,0.000000,,2013-06-08 10:43:00,
2013-06-08 04:52:00,54.0,53.0,-100.00,NW,323,7.0,17.0,95,0.16,,,0.22,0.000000,,2013-06-08 10:52:00,
2013-06-08 05:22:00,53.0,51.0,-100.00,NW,304,4.0,18.0,93,0.09,,,0.31,0.000000,,2013-06-08 11:22:00,
2013-06-08 05:32:00,53.0,51.0,-100.00,NW,304,4.0,18.0,93,0.09,,,0.31,0.000000,,2013-06-08 11:32:00,
2013-06-08 05:42:00,53.0,51.0,-100.00,NW,304,4.0,18.0,93,0.09,,,0.31,0.000000,,2013-06-08 11:42:00,
2013-06-08 05:52:00,53.0,51.0,-100.00,NW,304,4.0,18.0,93,0.09,,,0.31,0.000000,,2013-06-08 11:52:00,
2013-06-08 06:22:00,52.0,50.0,-100.00,South,170,2.0,7.0,93,0.01,,,0.32,4.000000,,2013-06-08 12:22:00,
2013-06-08 06:32:00,52.0,50.0,-100.00,South,170,2.0,7.0,93,0.01,,,0.32,4.000000,,2013-06-08 12:32:00,
2013-06-08 06:42:00,52.0,50.0,-100.00,South,170,2.0,7.0,93,0.01,,,0.32,4.000000,,2013-06-08 12:42:00,
2013-06-08 06:52:00,52.0,50.0,-100.00,South,170,2.0,7.0,93,0.01,,,0.32,4.000000,,2013-06-08 12:52:00,
2013-06-08 07:22:00,54.0,51.0,-100.00,NW,321,2.0,6.0,89,0.00,,,-99.99,56.000000,,2013-06-08 13:22:00,
2013-06-08 07:32:00,54.0,51.0,-100.00,NW,321,2.0,6.0,89,0.00,,,-99.99,56.000000,,2013-06-08 13:32:00,
2013-06-08 07:42:00,54.0,51.0,-100.00,NW,321,2.0,6.0,89,0.00,,,-99.99,56.000000,,2013-06-08 13:42:00,
2013-06-08 07:52:00,54.0,51.0,-100.00,NW,321,2.0,6.0,89,0.00,,,-99.99,56.000000,,2013-06-08 13:52:00,
2013-06-08 08:22:00,57.0,52.0,-100.00,WNW,297,6.0,13.0,84,0.00,,,0.32,267.000000,,2013-06-08 14:22:00,
2013-06-08 08:32:00,57.0,52.0,-100.00,WNW,297,6.0,13.0,84,0.00,,,0.32,267.000000,,2013-06-08 14:32:00,
2013-06-08 08:42:00,57.0,52.0,-100.00,WNW,297,6.0,13.0,84,0.00,,,0.32,267.000000,,2013-06-08 14:42:00,
2013-06-08 08:52:00,57.0,52.0,-100.00,WNW,297,6.0,13.0,84,0.00,,,0.32,267.000000,,2013-06-08 14:52:00,
2013-06-08 09:22:00,59.0,52.0,-100.00,WNW,286,9.0,23.0,77,0.00,,,0.32,436.000000,,2013-06-08 15:22:00,
2013-06-08 09:32:00,59.0,52.0,-100.00,WNW,286,9.0,23.0,77,0.00,,,0.32,436.000000,,2013-06-08 15:32:00,
2013-06-08 09:42:00,59.0,52.0,-100.00,WNW,286,9.0,23.0,77,0.00,,,0.32,436.000000,,2013-06-08 15:42:00,
2013-06-08 09:53:00,59.0,52.0,-100.00,WNW,286,9.0,23.0,77,0.00,,,0.32,436.000000,,2013-06-08 15:53:00,
2013-06-08 10:23:00,65.0,51.0,-100.00,NNW,328,7.0,21.0,60,0.00,,,0.32,608.000000,,2013-06-08 16:23:00,
2013-06-08 10:33:00,65.0,51.0,-100.00,NNW,328,7.0,21.0,60,0.00,,,0.32,608.000000,,2013-06-08 16:33:00,
2013-06-08 10:42:00,65.0,51.0,-100.00,NNW,328,7.0,21.0,60,0.00,,,0.32,608.000000,,2013-06-08 16:42:00,
2013-06-08 10:53:00,65.0,51.0,-100.00,NNW,328,7.0,21.0,60,0.00,,,0.32,608.000000,,2013-06-08 16:53:00,
2013-06-08 11:23:00,68.0,49.0,-100.00,NW,321,10.0,21.0,51,0.00,,,0.32,663.000000,,2013-06-08 17:23:00,
2013-06-08 11:32:00,68.0,49.0,-100.00,NW,321,10.0,21.0,51,0.00,,,0.32,663.000000,,2013-06-08 17:32:00,
2013-06-08 11:42:00,68.0,49.0,-100.00,NW,321,10.0,21.0,51,0.00,,,0.32,663.000000,,2013-06-08 17:42:00,
2013-06-08 11:52:00,68.0,49.0,-100.00,NW,321,10.0,21.0,51,0.00,,,0.32,663.000000,,2013-06-08 17:52:00,
2013-06-08 12:22:00,69.0,47.0,-100.00,NW,311,10.0,24.0,46,0.00,,,0.32,936.000000,,2013-06-08 18:22:00,
2013-06-08 12:32:00,69.0,47.0,-100.00,NW,311,10.0,24.0,46,0.00,,,0.32,936.000000,,2013-06-08 18:32:00,
2013-06-08 12:42:00,69.0,47.0,-100.00,NW,311,10.0,24.0,46,0.00,,,0.32,936.000000,,2013-06-08 18:42:00,
2013-06-08 12:52:00,69.0,47.0,-100.00,NW,311,10.0,24.0,46,0.00,,,0.32,936.000000,,2013-06-08 18:52:00,
2013-06-08 13:22:00,70.0,44.0,-100.00,NW,313,12.0,26.0,39,0.00,,,0.32,1002.000000,,2013-06-08 19:22:00,
2013-06-08 13:32:00,70.0,44.0,-100.00,NW,313,12.0,26.0,39,0.00,,,0.32,1002.000000,,2013-06-08 19:32:00,
2013-06-08 13:42:00,70.0,44.0,-100.00,NW,313,12.0,26.0,39,0.00,,,0.32,1002.000000,,2013-06-08 19:42:00,
2013-06-08 13:53:00,70.0,44.0,-100.00,NW,313,12.0,26.0,39,0.00,,,0.32,1002.000000,,2013-06-08 19:53:00,
2013-06-08 14:22:00,71.0,42.0,-100.00,NNW,333,12.0,31.0,35,0.00,,,0.32,942.000000,,2013-06-08 20:22:00,
2013-06-08 14:32:00,71.0,42.0,-100.00,NNW,333,12.0,31.0,35,0.00,,,0.32,942.000000,,2013-06-08 20:32:00,
2013-06-08 14:42:00,71.0,42.0,-100.00,NNW,333,12.0,31.0,35,0.00,,,0.32,942.000000,,2013-06-08 20:42:00,
2013-06-08 14:52:00,71.0,42.0,-100.00,NNW,333,12.0,31.0,35,0.00,,,0.32,942.000000,,2013-06-08 20:52:00,
2013-06-08 15:22:00,69.0,38.0,-100.00,NW,321,11.0,33.0,32,0.00,,,0.32,801.000000,,2013-06-08 21:22:00,
2013-06-08 15:33:00,69.0,38.0,-100.00,NW,321,11.0,33.0,32,0.00,,,0.32,801.000000,,2013-06-08 21:33:00,
2013-06-08 15:43:00,69.0,38.0,-100.00,NW,321,11.0,33.0,32,0.00,,,0.32,801.000000,,2013-06-08 21:43:00,
2013-06-08 15:52:00,69.0,38.0,-100.00,NW,321,11.0,33.0,32,0.00,,,0.32,801.000000,,2013-06-08 21:52:00,
2013-06-08 16:23:00,73.0,41.0,-100.00,NW,321,9.0,26.0,32,0.00,,,0.32,845.000000,,2013-06-08 22:23:00,
2013-06-08 16:33:00,73.0,41.0,-100.00,NW,321,9.0,26.0,32,0.00,,,0.32,845.000000,,2013-06-08 22:33:00,
2013-06-08 16:42:00,73.0,41.0,-100.00,NW,321,9.0,26.0,32,0.00,,,0.32,845.000000,,2013-06-08 22:42:00,
2013-06-08 16:52:00,73.0,41.0,-100.00,NW,321,9.0,26.0,32,0.00,,,0.32,845.000000,,2013-06-08 22:52:00,
2013-06-08 17:22:00,71.0,40.0,-100.00,NNW,330,9.0,26.0,32,0.00,,,0.32,636.000000,,2013-06-08 23:22:00,
2013-06-08 17:32:00,71.0,40.0,-100.00,NNW,330,9.0,26.0,32,0.00,,,0.32,636.000000,,2013-06-08 23:32:00,
2013-06-08 17:42:00,71.0,40.0,-100.00,NNW,330,9.0,26.0,32,0.00,,,0.32,636.000000,,2013-06-08 23:42:00,
2013-06-08 17:52:00,71.0,40.0,-100.00,NNW,330,9.0,26.0,32,0.00,,,0.32,636.000000,,2013-06-08 23:52:00,
2013-06-08 18:22:00,72.0,41.0,-100.00,NW,317,9.0,24.0,32,0.00,,,0.32,416.000000,,2013-06-09 00:22:00,
2013-06-08 18:32:00,72.0,41.0,-100.00,NW,317,9.0,24.0,32,0.00,,,0.32,416.000000,,2013-06-09 00:32:00,
2013-06-08 18:42:00,72.0,41.0,-100.00,NW,317,9.0,24.0,32,0.00,,,0.32,416.000000,,2013-06-09 00:42:00,
2013-06-08 18:52:00,72.0,41.0,-100.00,NW,317,9.0,24.0,32,0.00,,,0.32,416.000000,,2013-06-09 00:52:00,
2013-06-08 19:22:00,71.0,38.0,-100.00,NW,322,6.0,19.0,30,0.00,,,0.29,313.000000,,2013-06-09 01:22:00,
2013-06-08 19:32:00,71.0,38.0,-100.00,NW,322,6.0,19.0,30,0.00,,,0.29,313.000000,,2013-06-09 01:32:00,
2013-06-08 19:42:00,71.0,38.0,-100.00,NW,322,6.0,19.0,30,0.00,,,0.29,313.000000,,2013-06-09 01:42:00,
2013-06-08 19:52:00,71.0,38.0,-100.00,NW,322,6.0,19.0,30,0.00,,,0.29,313.000000,,2013-06-09 01:52:00,
2013-06-08 20:22:00,66.0,38.0,-100.00,NW,323,5.0,17.0,35,0.00,,,0.29,119.000000,,2013-06-09 02:22:00,
2013-06-08 20:32:00,66.0,38.0,-100.00,NW,323,5.0,17.0,35,0.00,,,0.29,119.000000,,2013-06-09 02:32:00,
2013-06-08 20:42:00,66.0,38.0,-100.00,NW,323,5.0,17.0,35,0.00,,,0.29,119.000000,,2013-06-09 02:42:00,
2013-06-08 20:52:00,66.0,38.0,-100.00,NW,323,5.0,17.0,35,0.00,,,0.29,119.000000,,2013-06-09 02:52:00,
2013-06-08 21:12:00,61.0,39.0,-100.00,NNW,327,2.0,9.0,44,0.00,,,0.29,8.000000,,2013-06-09 03:12:00,
2013-06-08 21:22:00,61.0,39.0,-100.00,NNW,327,2.0,9.0,44,0.00,,,0.29,8.000000,,2013-06-09 03:22:00,
2013-06-08 21:33:00,61.0,39.0,-100.00,NNW,327,2.0,9.0,44,0.00,,,0.29,8.000000,,2013-06-09 03:33:00,
2013-06-08 21:43:00,61.0,39.0,-100.00,NNW,327,2.0,9.0,44,0.00,,,0.29,8.000000,,2013-06-09 03:43:00,
2013-06-08 21:53:00,61.0,39.0,-100.00,NNW,327,2.0,9.0,44,0.00,,,0.29,8.000000,,2013-06-09 03:53:00,
2013-06-08 22:23:00,59.0,39.0,-100.00,NNW,328,2.0,4.0,47,0.00,,,0.29,0.000000,,2013-06-09 04:23:00,
2013-06-08 22:33:00,59.0,39.0,-100.00,NNW,328,2.0,4.0,47,0.00,,,0.29,0.000000,,2013-06-09 04:33:00,
2013-06-08 22:43:00,59.0,39.0,-100.00,NNW,328,2.0,4.0,47,0.00,,,0.29,0.000000,,2013-06-09 04:43:00,
2013-06-08 22:52:00,59.0,39.0,-100.00,NNW,328,2.0,4.0,47,0.00,,,0.29,0.000000,,2013-06-09 04:52:00,
2013-06-08 23:22:00,58.0,39.0,-100.00,NW,325,2.0,3.0,49,0.00,,,0.27,0.000000,,2013-06-09 05:22:00,
2013-06-08 23:32:00,58.0,39.0,-100.00,NW,325,2.0,3.0,49,0.00,,,0.27,0.000000,,2013-06-09 05:32:00,
2013-06-08 23:42:00,58.0,39.0,-100.00,NW,325,2.0,3.0,49,0.00,,,0.27,0.000000,,2013-06-09 05:42:00,
2013-06-08 23:52:00,58.0,39.0,-100.00,NW,325,2.0,3.0,49,0.00,,,0.27,0.000000,,2013-06-09 05:52:00,